THY2TN LTFE-LTFM

Flight info

Callsign THY2TN
Flight time 0h 57m
Altitude 32000
Route AKBUK UN618 IMR/N0482F340 UN618 DUGLA/N0485F330 UZ713 INBET
Aircraft B77W/H-SDE1E2E3FGHIJ2J3J4J5M1RWXY/LB1D1

Departure

Time 2026-05-04 19:05
Airport Milas Bodrum International Airport (LTFE)

Arrival

Time 2026-05-04 20:02
Airport İstanbul Airport (LTFM)
Time Latitude Longitude Altitude Speed Heading
2026-05-04 18:29 37.24429 27.67650 42 ft 0 kts 196°
2026-05-04 18:56 37.24433 27.67651 35 ft 2 kts 192°
2026-05-04 18:56 37.24471 27.67646 32 ft 7 kts 150°
2026-05-04 18:56 37.24500 27.67598 33 ft 2 kts 97°
2026-05-04 18:58 37.24499 27.67602 32 ft 4 kts 97°
2026-05-04 18:59 37.24485 27.67707 34 ft 20 kts 102°
2026-05-04 18:59 37.24439 27.67911 35 ft 25 kts 107°
2026-05-04 18:59 37.24443 27.68022 35 ft 12 kts 41°
2026-05-04 18:59 37.24521 27.68067 35 ft 18 kts 18°
2026-05-04 19:00 37.24648 27.68117 34 ft 18 kts 17°
2026-05-04 19:00 37.24745 27.68066 35 ft 19 kts 294°
2026-05-04 19:00 37.24763 27.67997 36 ft 0 kts 287°
2026-05-04 19:04 37.24784 27.67912 36 ft 47 kts 287°
2026-05-04 19:04 37.24893 27.67461 37 ft 115 kts 287°
2026-05-04 19:05 37.25214 27.66125 220 ft 191 kts 288°
2026-05-04 19:05 37.25605 27.64518 1412 ft 183 kts 287°
2026-05-04 19:05 37.25882 27.62976 2440 ft 188 kts 287°
2026-05-04 19:05 37.26326 27.60673 2803 ft 223 kts 288°
2026-05-04 19:06 37.26712 27.58697 3275 ft 239 kts 288°
2026-05-04 19:06 37.26981 27.57316 3759 ft 243 kts 288°
2026-05-04 19:06 37.27390 27.55245 4583 ft 246 kts 289°
2026-05-04 19:06 37.27806 27.53157 5367 ft 248 kts 289°
2026-05-04 19:07 37.28232 27.51033 6100 ft 254 kts 289°
2026-05-04 19:07 37.28671 27.48834 6773 ft 263 kts 289°
2026-05-04 19:07 37.29152 27.46642 7478 ft 262 kts 297°
2026-05-04 19:07 37.30155 27.44780 8172 ft 258 kts 322°
2026-05-04 19:08 37.31707 27.43703 8940 ft 256 kts 343°
2026-05-04 19:08 37.33464 27.43377 9716 ft 256 kts
2026-05-04 19:08 37.35262 27.43588 10401 ft 265 kts
2026-05-04 19:08 37.37164 27.43926 10632 ft 290 kts
2026-05-04 19:09 37.39254 27.44311 10850 ft 315 kts
2026-05-04 19:09 37.41513 27.44711 11190 ft 335 kts
2026-05-04 19:09 37.43823 27.45098 11927 ft 344 kts
2026-05-04 19:09 37.46244 27.45492 12838 ft 349 kts
2026-05-04 19:10 37.48637 27.45655 13592 ft 352 kts 354°
2026-05-04 19:10 37.50287 27.45384 14148 ft 354 kts 347°
2026-05-04 19:10 37.53415 27.44215 15339 ft 356 kts 337°
2026-05-04 19:10 37.55661 27.42872 16169 ft 359 kts 335°
2026-05-04 19:11 37.57936 27.41504 16972 ft 365 kts 336°
2026-05-04 19:11 37.60255 27.40144 17797 ft 369 kts 336°
2026-05-04 19:11 37.62598 27.38779 18590 ft 373 kts 336°
2026-05-04 19:11 37.64984 27.37425 19251 ft 379 kts 338°
2026-05-04 19:12 37.67421 27.36093 19870 ft 385 kts 338°
2026-05-04 19:12 37.72418 27.33388 21121 ft 396 kts 338°
2026-05-04 19:12 37.74972 27.32002 21769 ft 401 kts 338°
2026-05-04 19:13 37.77551 27.30597 22402 ft 406 kts 338°
2026-05-04 19:13 37.80127 27.29189 22985 ft 412 kts 339°
2026-05-04 19:13 37.82773 27.27740 23559 ft 417 kts 339°
2026-05-04 19:13 37.85492 27.26248 24070 ft 422 kts 339°
2026-05-04 19:14 37.88167 27.24779 24586 ft 426 kts 339°
2026-05-04 19:14 37.90933 27.23259 25110 ft 430 kts 339°
2026-05-04 19:14 37.93653 27.21762 25600 ft 433 kts 339°
2026-05-04 19:14 37.96433 27.20232 26096 ft 437 kts 339°
2026-05-04 19:15 37.99236 27.18687 26563 ft 441 kts 339°
2026-05-04 19:15 38.02062 27.17129 27040 ft 445 kts 339°
2026-05-04 19:15 38.04914 27.15555 27505 ft 448 kts 339°
2026-05-04 19:15 38.07782 27.13970 27973 ft 452 kts 339°
2026-05-04 19:16 38.10673 27.12372 28399 ft 455 kts 339°
2026-05-04 19:16 38.13581 27.10762 28837 ft 458 kts 339°
2026-05-04 19:16 38.16514 27.09137 29230 ft 461 kts 339°
2026-05-04 19:16 38.19453 27.07507 29662 ft 462 kts 339°
2026-05-04 19:17 38.22396 27.05873 30223 ft 460 kts 339°
2026-05-04 19:17 38.25325 27.04246 30707 ft 459 kts 339°
2026-05-04 19:17 38.28265 27.02702 31110 ft 455 kts 344°
2026-05-04 19:17 38.31327 27.01764 31476 ft 452 kts 354°
2026-05-04 19:18 38.34449 27.01439 31931 ft 449 kts
2026-05-04 19:18 38.36518 27.01479 32095 ft 450 kts
2026-05-04 19:18 38.40670 27.02210 32094 ft 450 kts
2026-05-04 19:19 38.46817 27.03432 32069 ft 445 kts
2026-05-04 19:19 38.52942 27.04593 32067 ft 445 kts
2026-05-04 19:20 38.59026 27.05718 32068 ft 444 kts
2026-05-04 19:20 38.65152 27.06848 32061 ft 444 kts
2026-05-04 19:21 38.71278 27.07980 32064 ft 445 kts
2026-05-04 19:21 38.77400 27.09113 32067 ft 444 kts
2026-05-04 19:22 38.81460 27.09866 32061 ft 444 kts
2026-05-04 19:22 38.90047 27.11463 32060 ft 443 kts
2026-05-04 19:23 38.96116 27.12593 32064 ft 443 kts
2026-05-04 19:23 39.02214 27.13726 32063 ft 443 kts
2026-05-04 19:24 39.08318 27.14829 32062 ft 443 kts
2026-05-04 19:24 39.14422 27.15929 32073 ft 443 kts
2026-05-04 19:25 39.20526 27.17037 32067 ft 443 kts
2026-05-04 19:25 39.26643 27.18149 32069 ft 444 kts
2026-05-04 19:26 39.32768 27.19266 32077 ft 444 kts
2026-05-04 19:26 39.38887 27.20383 32103 ft 444 kts
2026-05-04 19:27 39.45010 27.21504 32089 ft 445 kts
2026-05-04 19:27 39.48673 27.22133 32085 ft 445 kts
2026-05-04 19:28 39.50011 27.22271 32085 ft 445 kts
2026-05-04 19:29 39.50953 27.22325 32105 ft 445 kts
2026-05-04 19:32 39.56446 27.22011 31900 ft 443 kts 358°
2026-05-04 19:32 39.59519 27.21777 31602 ft 443 kts 358°
2026-05-04 19:32 39.62597 27.21563 31322 ft 442 kts 358°
2026-05-04 19:32 39.65672 27.21358 31083 ft 441 kts 358°
2026-05-04 19:33 39.68736 27.21157 30894 ft 439 kts 358°
2026-05-04 19:33 39.71782 27.20959 30691 ft 438 kts 358°
2026-05-04 19:33 39.73795 27.20828 30565 ft 437 kts 358°
2026-05-04 19:33 39.77849 27.20562 30290 ft 436 kts 358°
2026-05-04 19:34 39.79853 27.20430 30153 ft 435 kts 358°
2026-05-04 19:34 39.82877 27.20229 29926 ft 434 kts 358°
2026-05-04 19:34 39.85886 27.20030 29538 ft 433 kts 358°
2026-05-04 19:34 39.88899 27.19831 28938 ft 430 kts 358°
2026-05-04 19:35 39.91878 27.19633 28374 ft 426 kts 358°
2026-05-04 19:35 39.94821 27.19479 27806 ft 421 kts
2026-05-04 19:35 39.97729 27.19712 27247 ft 416 kts
2026-05-04 19:35 40.00541 27.20285 26707 ft 412 kts 11°
2026-05-04 19:36 40.03314 27.21145 26175 ft 408 kts 17°
2026-05-04 19:36 40.06003 27.22285 25649 ft 405 kts 18°
2026-05-04 19:36 40.08674 27.23410 25120 ft 402 kts 17°
2026-05-04 19:36 40.11326 27.24507 24611 ft 399 kts 17°
2026-05-04 19:37 40.13938 27.25580 24447 ft 387 kts 17°
2026-05-04 19:37 40.16472 27.26625 24249 ft 375 kts 18°
2026-05-04 19:37 40.18791 27.28009 24026 ft 364 kts 32°
2026-05-04 19:37 40.20671 27.30212 23588 ft 361 kts 45°
2026-05-04 19:38 40.22346 27.32642 23125 ft 358 kts 44°
2026-05-04 19:38 40.24041 27.35022 22670 ft 356 kts 44°
2026-05-04 19:38 40.25730 27.37369 22235 ft 353 kts 44°
2026-05-04 19:38 40.27409 27.39698 21813 ft 350 kts 44°
2026-05-04 19:39 40.29073 27.42007 21386 ft 347 kts 44°
2026-05-04 19:39 40.30726 27.44302 20982 ft 345 kts 44°
2026-05-04 19:39 40.32365 27.46580 20573 ft 342 kts 44°
2026-05-04 19:39 40.33990 27.48841 20168 ft 340 kts 44°
2026-05-04 19:40 40.35604 27.51088 19763 ft 337 kts 44°
2026-05-04 19:40 40.37207 27.53321 19341 ft 335 kts 44°
2026-05-04 19:40 40.38799 27.55542 18959 ft 333 kts 44°
2026-05-04 19:40 40.40379 27.57746 18563 ft 331 kts 44°
2026-05-04 19:41 40.41930 27.59911 18133 ft 329 kts 44°
2026-05-04 19:41 40.43488 27.62089 17690 ft 326 kts 44°
2026-05-04 19:41 40.45036 27.64254 17271 ft 323 kts 44°
2026-05-04 19:41 40.46566 27.66395 16865 ft 320 kts 44°
2026-05-04 19:42 40.47954 27.68340 16516 ft 318 kts 44°
2026-05-04 19:42 40.49559 27.70579 16197 ft 360 kts 44°
2026-05-04 19:42 40.51378 27.73115 16037 ft 399 kts 44°
2026-05-04 19:42 40.53263 27.75761 16337 ft 389 kts 44°
2026-05-04 19:43 40.55068 27.78307 16316 ft 371 kts 44°
2026-05-04 19:43 40.56759 27.80699 16000 ft 346 kts 44°
2026-05-04 19:43 40.58342 27.82988 15512 ft 330 kts 46°
2026-05-04 19:43 40.59705 27.85346 15019 ft 318 kts 52°
2026-05-04 19:44 40.60835 27.87832 14408 ft 314 kts 56°
2026-05-04 19:44 40.61918 27.90321 13741 ft 312 kts 56°
2026-05-04 19:44 40.62987 27.92756 13009 ft 311 kts 55°
2026-05-04 19:44 40.64094 27.95273 12549 ft 314 kts 55°
2026-05-04 19:45 40.65177 27.97742 12356 ft 309 kts 55°
2026-05-04 19:45 40.66245 28.00177 12102 ft 306 kts 55°
2026-05-04 19:45 40.67305 28.02595 11790 ft 305 kts 55°
2026-05-04 19:45 40.68352 28.04981 11477 ft 304 kts 55°
2026-05-04 19:46 40.69410 28.07395 11189 ft 303 kts 55°
2026-05-04 19:46 40.70460 28.09793 10919 ft 301 kts 55°
2026-05-04 19:46 40.71506 28.12184 10620 ft 301 kts 55°
2026-05-04 19:46 40.72549 28.14568 10346 ft 300 kts 55°
2026-05-04 19:47 40.73586 28.16941 10093 ft 298 kts 55°
2026-05-04 19:47 40.74606 28.19282 10006 ft 290 kts 55°
2026-05-04 19:47 40.75595 28.21555 9948 ft 282 kts 54°
2026-05-04 19:47 40.76558 28.23767 9889 ft 273 kts 54°
2026-05-04 19:48 40.77491 28.25911 9821 ft 265 kts 54°
2026-05-04 19:48 40.78396 28.27991 9745 ft 258 kts 54°
2026-05-04 19:48 40.79276 28.30015 9621 ft 252 kts 54°
2026-05-04 19:48 40.80149 28.32017 9295 ft 251 kts 54°
2026-05-04 19:49 40.81001 28.33977 8995 ft 248 kts 54°
2026-05-04 19:49 40.81867 28.35969 8692 ft 246 kts 54°
2026-05-04 19:49 40.82714 28.37919 8395 ft 244 kts 54°
2026-05-04 19:49 40.83541 28.39824 8117 ft 241 kts 53°
2026-05-04 19:50 40.84371 28.41738 7809 ft 239 kts 53°
2026-05-04 19:50 40.85194 28.43639 7526 ft 237 kts 53°
2026-05-04 19:50 40.86011 28.45525 7239 ft 235 kts 53°
2026-05-04 19:50 40.86820 28.47394 6958 ft 234 kts 53°
2026-05-04 19:51 40.87626 28.49259 6674 ft 232 kts 53°
2026-05-04 19:51 40.88423 28.51102 6397 ft 230 kts 53°
2026-05-04 19:51 40.89219 28.52945 6107 ft 232 kts 53°
2026-05-04 19:51 40.90018 28.54830 5792 ft 237 kts 58°
2026-05-04 19:52 40.90450 28.56990 5440 ft 248 kts 75°
2026-05-04 19:52 40.90748 28.59256 5315 ft 252 kts 71°
2026-05-04 19:52 40.91142 28.61649 5386 ft 284 kts 72°
2026-05-04 19:52 40.91563 28.64311 5411 ft 300 kts 73°
2026-05-04 19:53 40.91951 28.66942 5172 ft 282 kts 73°
2026-05-04 19:53 40.92313 28.69428 4780 ft 269 kts 73°
2026-05-04 19:53 40.92721 28.71788 4296 ft 256 kts 63°
2026-05-04 19:53 40.93693 28.73567 4009 ft 226 kts 33°
2026-05-04 19:54 40.94944 28.74547 3983 ft 200 kts 24°
2026-05-04 19:54 40.96127 28.75370 4039 ft 188 kts 25°
2026-05-04 19:54 40.97314 28.75955 3982 ft 177 kts
2026-05-04 19:54 40.98507 28.76030 4010 ft 169 kts
2026-05-04 19:55 40.99648 28.76093 3994 ft 159 kts
2026-05-04 19:55 41.00729 28.76114 3990 ft 153 kts
2026-05-04 19:55 41.01790 28.76114 3990 ft 152 kts
2026-05-04 19:55 41.02821 28.76104 3978 ft 144 kts
2026-05-04 19:56 41.03813 28.76090 3991 ft 143 kts
2026-05-04 19:56 41.04810 28.76074 3992 ft 143 kts
2026-05-04 19:56 41.05798 28.76056 3988 ft 140 kts
2026-05-04 19:56 41.06762 28.76037 4018 ft 136 kts
2026-05-04 19:57 41.07695 28.76021 3988 ft 134 kts
2026-05-04 19:57 41.08642 28.76003 3813 ft 136 kts
2026-05-04 19:57 41.09584 28.75985 3631 ft 135 kts 360°
2026-05-04 19:57 41.10524 28.75967 3448 ft 135 kts 360°
2026-05-04 19:58 41.11455 28.75949 3292 ft 137 kts
2026-05-04 19:58 41.12413 28.75932 3098 ft 138 kts
2026-05-04 19:58 41.13367 28.75915 2885 ft 136 kts
2026-05-04 19:58 41.14317 28.75896 2712 ft 138 kts
2026-05-04 19:59 41.15282 28.75878 2540 ft 140 kts 359°
2026-05-04 19:59 41.16256 28.75858 2320 ft 139 kts 360°
2026-05-04 19:59 41.17222 28.75841 2128 ft 139 kts 359°
2026-05-04 19:59 41.18203 28.75822 1950 ft 143 kts 359°
2026-05-04 20:00 41.19196 28.75803 1751 ft 141 kts 359°
2026-05-04 20:00 41.20177 28.75785 1550 ft 142 kts 359°
2026-05-04 20:00 41.21169 28.75766 1366 ft 144 kts 359°
2026-05-04 20:00 41.22175 28.75744 1162 ft 145 kts 358°
2026-05-04 20:01 41.23195 28.75724 942 ft 148 kts 356°
2026-05-04 20:01 41.24219 28.75686 778 ft 146 kts 357°
2026-05-04 20:01 41.25247 28.75686 561 ft 153 kts 357°
2026-05-04 20:01 41.26288 28.75667 361 ft 147 kts 357°
2026-05-04 20:02 41.27209 28.75653 302 ft 89 kts 359°
2026-05-04 20:02 41.27655 28.75648 287 ft 58 kts 359°
2026-05-04 20:02 41.28016 28.75598 271 ft 41 kts 338°
2026-05-04 20:02 41.28118 28.75530 267 ft 0 kts 330°
2026-05-04 20:04 41.28146 28.75505 266 ft 14 kts 321°
2026-05-04 20:05 41.28144 28.75375 266 ft 17 kts 221°
2026-05-04 20:05 41.28011 28.75356 272 ft 25 kts 180°
2026-05-04 20:05 41.27803 28.75357 285 ft 33 kts 179°
2026-05-04 20:05 41.27627 28.75362 299 ft 26 kts 180°
2026-05-04 20:06 41.27470 28.75364 305 ft 20 kts 179°
2026-05-04 20:06 41.27295 28.75367 307 ft 28 kts 179°
2026-05-04 20:06 41.27168 28.75329 311 ft 14 kts 239°
2026-05-04 20:06 41.27098 28.75256 310 ft 14 kts 188°
2026-05-04 20:07 41.27002 28.75253 311 ft 14 kts 180°
2026-05-04 20:07 41.26906 28.75256 315 ft 13 kts 179°
2026-05-04 20:07 41.26814 28.75257 315 ft 13 kts 180°
2026-05-04 20:07 41.26721 28.75257 316 ft 13 kts 179°
2026-05-04 20:08 41.26629 28.75260 316 ft 13 kts 179°
2026-05-04 20:08 41.26537 28.75262 317 ft 13 kts 179°
2026-05-04 20:08 41.26446 28.75264 318 ft 13 kts 179°
2026-05-04 20:08 41.26353 28.75265 318 ft 13 kts 179°
2026-05-04 20:09 41.26265 28.75245 319 ft 13 kts 218°
2026-05-04 20:09 41.26241 28.75128 318 ft 14 kts 268°
2026-05-04 20:09 41.26229 28.75003 318 ft 14 kts 255°
2026-05-04 20:09 41.26201 28.74884 318 ft 13 kts 251°
2026-05-04 20:10 41.26194 28.74858 318 ft 0 kts 251°